Date String (YYYY-MM-DD hh:mm:ss) UTC,Instrument flags,Ambient pressure (hPa),Sample flow (lpm),Bypass flow (lpm),Sample temperature (°C),Ambient temperature (°C),ASC tube jacket temperature (°C),LED temperature (°C),Box temperature (°C),Sample RH (%),Mass concentration (μg/m³),Mass concentration (μg/m³)
DateTimeUTC,F1_M11,P_M11,Q1_M11,Q2_M11,T1_M11,T2_M11,T3_M11,T4_M11,T5_M11,U1_M11,X0_M11,X2_M11
2021-08-17 14:00:00,,0825.2,5.00,0.00,29.9,28.9,00.0,38.9,31.8,20.4,0035.69,0023.14
2021-08-17 14:01:00,,0825.2,4.99,0.00,30.0,29.0,00.0,39.0,31.8,20.7,0035.45,0023.14
2021-08-17 14:02:00,,0825.3,5.01,0.00,30.0,29.1,00.0,39.0,31.9,20.8,0035.14,0023.13
2021-08-17 14:03:00,,0825.3,5.00,0.00,30.0,29.1,00.0,39.0,31.9,21.3,0035.30,0023.20
2021-08-17 14:04:00,,0825.3,5.00,0.00,30.0,29.2,00.0,39.0,31.9,20.7,0035.44,0023.22
2021-08-17 14:05:00,,0825.3,5.01,0.00,30.1,29.2,00.0,39.0,31.9,20.6,0036.57,0023.26
2021-08-17 14:06:00,,0825.3,4.99,0.00,30.1,28.1,00.0,39.0,31.6,20.1,0036.69,0023.30
2021-08-17 14:07:00,,0825.3,5.00,0.00,29.9,26.4,00.0,39.0,31.1,20.1,0035.39,0023.26
2021-08-17 14:08:00,,0825.3,5.00,0.00,29.7,26.4,00.0,39.0,31.1,20.3,0035.32,0023.24
2021-08-17 14:09:00,,0825.3,5.01,0.00,29.7,26.8,00.0,39.0,31.2,20.4,0035.48,0023.27
2021-08-17 14:10:00,,0825.3,5.00,0.00,29.6,27.2,00.0,38.9,31.2,20.2,0035.21,0023.33
2021-08-17 14:11:00,,0825.3,5.00,0.00,29.7,27.5,00.0,38.9,31.3,20.0,0034.30,0023.34
2021-08-17 14:12:00,,0825.3,5.01,0.00,29.7,27.8,00.0,38.9,31.4,20.5,0034.33,0023.34
2021-08-17 14:13:00,,0825.3,5.00,0.00,29.7,28.1,00.0,38.9,31.4,20.8,0035.53,0023.41
2021-08-17 14:14:00,,0825.3,5.01,0.00,29.7,28.3,00.0,38.9,31.5,20.0,0035.86,0023.40
2021-08-17 14:15:00,,0825.3,4.99,0.00,29.7,28.4,00.0,38.9,31.5,19.9,0035.47,0023.35
2021-08-17 14:16:00,,0825.3,5.00,0.00,29.8,28.6,00.0,38.9,31.6,19.1,0034.69,0023.35
2021-08-17 14:17:00,,0825.3,5.01,0.00,29.8,28.7,00.0,38.9,31.7,19.2,0034.54,0023.31
2021-08-17 14:18:00,,0825.3,5.00,0.00,29.8,28.8,00.0,38.9,31.7,19.5,0034.21,0023.29
2021-08-17 14:19:00,,0825.4,4.99,0.00,29.9,28.9,00.0,38.9,31.7,19.4,0034.53,0023.23
2021-08-17 14:20:00,,0825.3,5.01,0.00,29.9,28.9,00.0,38.9,31.7,20.1,0034.45,0023.15
2021-08-17 14:21:00,,0825.4,5.00,0.00,29.9,29.0,00.0,38.9,31.8,19.0,0034.15,0023.07
2021-08-17 14:22:00,,0825.3,5.00,0.00,30.0,29.1,00.0,39.0,31.8,18.8,0034.17,0023.01
2021-08-17 14:23:00,,0825.3,5.01,0.00,30.0,29.1,00.0,39.0,31.9,18.3,0033.92,0022.92
2021-08-17 14:24:00,,0825.3,4.99,0.00,30.0,28.3,00.0,39.0,31.7,18.4,0033.27,0022.81
2021-08-17 14:25:00,,0825.3,4.99,0.00,29.9,26.7,00.0,39.0,31.2,18.5,0033.10,0022.76
2021-08-17 14:26:00,,0825.3,5.00,0.00,29.8,26.5,00.0,38.9,31.1,18.4,0033.59,0022.71
2021-08-17 14:27:00,,0825.4,5.01,0.00,29.7,26.8,00.0,38.9,31.3,18.8,0033.05,0022.59
2021-08-17 14:28:00,,0825.3,5.00,0.00,29.7,27.2,00.0,38.9,31.3,18.4,0033.01,0022.53
2021-08-17 14:29:00,,0825.3,4.99,0.00,29.7,27.6,00.0,38.8,31.3,18.5,0032.92,0022.40
2021-08-17 14:30:00,,0825.3,5.00,0.00,29.7,27.9,00.0,38.8,31.4,19.2,0032.06,0022.26
2021-08-17 14:31:00,,0825.3,5.00,0.00,29.7,28.1,00.0,38.8,31.4,18.8,0031.59,0022.16
2021-08-17 14:32:00,,0825.3,5.01,0.00,29.7,28.3,00.0,38.8,31.5,19.3,0030.54,0022.03
2021-08-17 14:33:00,,0825.4,4.99,0.00,29.8,28.5,00.0,38.8,31.6,19.9,0030.25,0021.91
2021-08-17 14:34:00,,0825.3,5.01,0.00,29.8,28.6,00.0,38.8,31.6,18.9,0030.06,0021.83
2021-08-17 14:35:00,,0825.4,4.99,0.00,29.8,28.7,00.0,38.9,31.7,18.3,0029.07,0021.70
2021-08-17 14:36:00,,0825.4,5.00,0.00,29.9,28.8,00.0,38.9,31.7,18.2,0028.68,0021.57
2021-08-17 14:37:00,,0825.3,5.01,0.00,29.9,28.9,00.0,38.9,31.8,18.3,0027.72,0021.44
2021-08-17 14:38:00,,0825.3,5.01,0.00,29.9,29.0,00.0,38.9,31.8,18.5,0028.08,0021.37
2021-08-17 14:39:00,,0825.3,5.00,0.00,30.0,28.8,00.0,38.9,31.8,18.2,0028.35,0021.33
2021-08-17 14:40:00,,0825.4,5.00,0.00,29.9,27.3,00.0,38.9,31.3,18.2,0028.89,0021.35
2021-08-17 14:41:00,,0825.3,5.00,0.00,29.7,26.3,00.0,38.9,31.0,18.5,0029.54,0021.37
2021-08-17 14:42:00,,0825.4,5.00,0.00,29.7,26.6,00.0,38.9,31.1,18.5,0029.86,0021.37
2021-08-17 14:43:00,,0825.4,4.99,0.00,29.6,27.0,00.0,38.8,31.2,18.5,0030.64,0021.36
2021-08-17 14:44:00,,0825.3,5.00,0.00,29.6,27.4,00.0,38.8,31.3,18.5,0030.96,0021.39
2021-08-17 14:45:00,,0825.4,5.01,0.00,29.6,27.7,00.0,38.8,31.3,18.6,0031.35,0021.37
2021-08-17 14:46:00,,0825.4,5.01,0.00,29.7,28.0,00.0,38.8,31.4,18.7,0031.48,0021.40
2021-08-17 14:47:00,,0825.4,5.00,0.00,29.7,28.2,00.0,38.8,31.5,19.0,0032.04,0021.41
2021-08-17 14:48:00,,0825.3,5.01,0.00,29.7,28.4,00.0,38.8,31.5,18.8,0032.62,0021.47
2021-08-17 14:49:00,,0825.3,5.00,0.00,29.7,28.6,00.0,38.8,31.6,18.6,0032.21,0021.50
2021-08-17 14:50:00,,0825.3,4.99,0.00,29.8,28.7,00.0,38.8,31.7,18.3,0031.95,0021.49
2021-08-17 14:51:00,,0825.3,5.00,0.00,29.8,28.8,00.0,38.8,31.7,18.2,0031.46,0021.50
2021-08-17 14:52:00,,0825.3,5.01,0.00,29.9,28.9,00.0,38.8,31.8,18.3,0031.95,0021.51
2021-08-17 14:53:00,,0825.3,5.00,0.00,29.9,29.0,00.0,38.9,31.8,18.2,0031.78,0021.56
2021-08-17 14:54:00,,0825.3,4.99,0.00,30.0,29.1,00.0,38.9,31.8,18.2,0031.46,0021.62
2021-08-17 14:55:00,,0825.3,5.00,0.00,29.9,28.2,00.0,38.9,31.6,18.5,0031.93,0021.62
2021-08-17 14:56:00,,0825.2,5.00,0.00,29.8,26.5,00.0,38.9,31.1,19.0,0032.26,0021.60
2021-08-17 14:57:00,,0825.2,5.00,0.00,29.7,26.5,00.0,38.9,31.1,18.7,0031.87,0021.58
2021-08-17 14:58:00,,0825.2,5.01,0.00,29.7,26.9,00.0,38.8,31.2,18.4,0031.75,0021.57
2021-08-17 14:59:00,,0825.2,5.00,0.00,29.6,27.3,00.0,38.8,31.3,19.0,0031.68,0021.57
